Time,TemperatureF,DewpointF,PressureIn,WindDirection,WindDirectionDegrees,WindSpeedMPH,WindSpeedGustMPH,Humidity,HourlyPrecipIn,Conditions,Clouds,dailyrainin,SoftwareType,DateUTC
2013-03-24 00:02:00,33.0,29.0,30.00,NE,53,3.0,32.0,86,0.00,,,0.00,,2013-03-24 05:02:00,
2013-03-24 00:12:00,33.0,29.0,30.00,NE,53,3.0,32.0,86,0.00,,,0.00,,2013-03-24 05:12:00,
2013-03-24 00:22:00,33.0,29.0,30.00,ENE,62,5.0,32.0,86,0.00,,,0.00,,2013-03-24 05:22:00,
2013-03-24 00:32:00,33.0,29.0,30.00,NE,43,5.0,11.0,86,0.00,,,0.00,,2013-03-24 05:32:00,
2013-03-24 00:42:00,33.0,29.0,30.00,NE,43,5.0,11.0,86,0.00,,,0.00,,2013-03-24 05:42:00,
2013-03-24 00:52:00,33.0,29.0,30.00,ENE,58,7.0,12.0,86,0.00,,,0.00,,2013-03-24 05:52:00,
2013-03-24 01:02:00,33.0,29.0,30.00,NE,55,8.0,14.0,86,0.00,,,0.00,,2013-03-24 06:02:00,
2013-03-24 01:12:00,33.0,29.0,30.00,NE,55,8.0,14.0,86,0.00,,,0.00,,2013-03-24 06:12:00,
2013-03-24 01:22:00,33.0,29.0,30.00,NE,55,10.0,16.0,86,0.00,,,0.00,,2013-03-24 06:22:00,
2013-03-24 01:32:00,32.0,28.0,30.00,ENE,61,7.0,17.0,86,0.00,,,0.00,,2013-03-24 06:32:00,
2013-03-24 01:42:00,32.0,28.0,30.00,ENE,61,7.0,17.0,86,0.00,,,0.00,,2013-03-24 06:42:00,
2013-03-24 01:52:00,31.0,27.0,30.00,ENE,62,9.0,17.0,86,0.00,,,0.00,,2013-03-24 06:52:00,
2013-03-24 02:02:00,31.0,27.0,30.00,ENE,59,8.0,17.0,86,0.00,,,0.00,,2013-03-24 07:02:00,
2013-03-24 02:12:00,31.0,27.0,30.00,ENE,59,8.0,17.0,86,0.00,,,0.00,,2013-03-24 07:12:00,
2013-03-24 02:22:00,31.0,27.0,30.00,NE,47,7.0,17.0,86,0.00,,,0.00,,2013-03-24 07:22:00,
2013-03-24 02:32:00,30.0,26.0,30.00,NE,41,7.0,32.0,86,0.00,,,0.00,,2013-03-24 07:32:00,
2013-03-24 02:42:00,30.0,26.0,30.00,NE,41,7.0,32.0,86,0.00,,,0.00,,2013-03-24 07:42:00,
2013-03-24 02:52:00,31.0,27.0,30.00,NE,39,3.0,32.0,86,0.00,,,0.00,,2013-03-24 07:52:00,
2013-03-24 03:03:00,31.0,27.0,30.00,NE,50,5.0,32.0,86,0.00,,,0.00,,2013-03-24 08:03:00,
2013-03-24 03:12:00,31.0,27.0,30.00,NE,50,5.0,32.0,86,0.00,,,0.00,,2013-03-24 08:12:00,
2013-03-24 03:22:00,31.0,27.0,30.00,NE,54,3.0,32.0,86,0.00,,,0.00,,2013-03-24 08:22:00,
2013-03-24 03:32:00,31.0,27.0,30.00,NE,51,3.0,32.0,86,0.00,,,0.00,,2013-03-24 08:32:00,
2013-03-24 03:42:00,31.0,27.0,30.00,NE,51,3.0,32.0,86,0.00,,,0.00,,2013-03-24 08:42:00,
2013-03-24 03:52:00,31.0,27.0,30.00,NE,43,5.0,32.0,86,0.00,,,0.00,,2013-03-24 08:52:00,
2013-03-24 04:02:00,30.0,26.0,30.00,ENE,63,6.0,32.0,86,0.00,,,0.00,,2013-03-24 09:02:00,
2013-03-24 04:12:00,30.0,26.0,30.00,ENE,63,6.0,32.0,86,0.00,,,0.00,,2013-03-24 09:12:00,
2013-03-24 04:22:00,30.0,26.0,30.00,NE,39,3.0,32.0,86,0.00,,,0.00,,2013-03-24 09:22:00,
2013-03-24 04:33:00,30.0,26.0,30.00,NNE,29,2.0,32.0,86,0.00,,,0.00,,2013-03-24 09:33:00,
2013-03-24 04:42:00,30.0,26.0,30.00,NNE,29,2.0,32.0,86,0.00,,,0.00,,2013-03-24 09:42:00,
2013-03-24 04:52:00,30.0,26.0,30.00,NE,36,3.0,32.0,86,0.00,,,0.00,,2013-03-24 09:52:00,
2013-03-24 05:02:00,30.0,26.0,30.00,NE,55,3.0,32.0,86,0.00,,,0.00,,2013-03-24 10:02:00,
2013-03-24 05:12:00,30.0,26.0,30.00,NE,55,3.0,32.0,86,0.00,,,0.00,,2013-03-24 10:12:00,
2013-03-24 05:22:00,30.0,26.0,30.00,NE,44,6.0,32.0,86,0.00,,,0.00,,2013-03-24 10:22:00,
2013-03-24 05:32:00,30.0,26.0,30.00,NE,41,1.0,32.0,86,0.00,,,0.00,,2013-03-24 10:32:00,
2013-03-24 05:42:00,30.0,26.0,30.00,NE,41,1.0,32.0,86,0.00,,,0.00,,2013-03-24 10:42:00,
2013-03-24 05:52:00,30.0,26.0,30.00,NE,44,3.0,32.0,86,0.00,,,0.00,,2013-03-24 10:52:00,
2013-03-24 06:03:00,30.0,26.0,30.00,NNE,32,3.0,32.0,86,0.00,,,0.00,,2013-03-24 11:03:00,
2013-03-24 06:12:00,30.0,26.0,30.00,NNE,32,3.0,32.0,86,0.00,,,0.00,,2013-03-24 11:12:00,
2013-03-24 06:22:00,31.0,27.0,30.00,NNE,20,1.0,32.0,86,0.00,,,0.00,,2013-03-24 11:22:00,
2013-03-24 06:32:00,30.0,26.0,30.00,NE,38,6.0,32.0,86,0.00,,,0.00,,2013-03-24 11:32:00,
2013-03-24 06:42:00,30.0,26.0,30.00,NE,38,6.0,32.0,86,0.00,,,0.00,,2013-03-24 11:42:00,
2013-03-24 06:52:00,30.0,26.0,30.00,NE,43,5.0,32.0,86,0.00,,,0.00,,2013-03-24 11:52:00,
2013-03-24 07:02:00,29.0,25.0,30.00,NNE,25,2.0,32.0,86,0.00,,,0.00,,2013-03-24 12:02:00,
2013-03-24 07:12:00,29.0,25.0,30.00,NNE,25,2.0,32.0,86,0.00,,,0.00,,2013-03-24 12:12:00,
2013-03-24 07:22:00,29.0,25.0,30.00,NE,36,5.0,32.0,86,0.00,,,0.00,,2013-03-24 12:22:00,
2013-03-24 07:32:00,29.0,25.0,30.00,NE,36,5.0,32.0,86,0.00,,,0.00,,2013-03-24 12:32:00,
2013-03-24 07:42:00,29.0,25.0,30.00,NE,36,5.0,32.0,86,0.00,,,0.00,,2013-03-24 12:42:00,
2013-03-24 07:52:00,29.0,25.0,30.00,NNE,25,5.0,32.0,86,0.00,,,0.00,,2013-03-24 12:52:00,
2013-03-24 08:02:00,29.0,25.0,30.00,NNE,33,7.0,32.0,86,0.00,,,0.00,,2013-03-24 13:02:00,
2013-03-24 08:12:00,29.0,25.0,30.00,NNE,33,7.0,32.0,86,0.00,,,0.00,,2013-03-24 13:12:00,
2013-03-24 08:22:00,29.0,25.0,30.00,NNE,28,6.0,32.0,86,0.00,,,0.00,,2013-03-24 13:22:00,
2013-03-24 08:32:00,29.0,25.0,30.00,NNE,27,6.0,32.0,86,0.00,,,0.00,,2013-03-24 13:32:00,
2013-03-24 08:42:00,29.0,25.0,30.00,NNE,27,6.0,32.0,86,0.00,,,0.00,,2013-03-24 13:42:00,
2013-03-24 08:52:00,29.0,25.0,30.00,NNE,31,8.0,32.0,86,0.00,,,0.00,,2013-03-24 13:52:00,
2013-03-24 09:02:00,30.0,26.0,30.00,NE,36,7.0,32.0,86,0.00,,,0.00,,2013-03-24 14:02:00,
2013-03-24 09:12:00,30.0,26.0,30.00,NE,36,7.0,32.0,86,0.00,,,0.00,,2013-03-24 14:12:00,
2013-03-24 09:22:00,30.0,26.0,30.00,NNE,33,8.0,32.0,86,0.00,,,0.00,,2013-03-24 14:22:00,
2013-03-24 09:32:00,30.0,26.0,30.00,NE,39,7.0,32.0,86,0.00,,,0.00,,2013-03-24 14:32:00,
2013-03-24 09:42:00,30.0,26.0,30.00,NE,39,7.0,32.0,86,0.00,,,0.00,,2013-03-24 14:42:00,
2013-03-24 09:52:00,30.0,26.0,30.00,NE,38,8.0,32.0,86,0.00,,,0.00,,2013-03-24 14:52:00,
2013-03-24 10:02:00,31.0,27.0,30.00,NE,43,7.0,32.0,86,0.00,,,0.00,,2013-03-24 15:02:00,
2013-03-24 10:12:00,31.0,27.0,30.00,NE,43,7.0,32.0,86,0.00,,,0.00,,2013-03-24 15:12:00,
2013-03-24 10:22:00,31.0,27.0,30.00,NNE,30,8.0,32.0,86,0.00,,,0.00,,2013-03-24 15:22:00,
2013-03-24 10:33:00,32.0,28.0,30.00,NE,38,6.0,32.0,86,0.00,,,0.00,,2013-03-24 15:33:00,
2013-03-24 10:43:00,32.0,28.0,30.00,NE,38,6.0,32.0,86,0.00,,,0.00,,2013-03-24 15:43:00,
2013-03-24 10:53:00,32.0,28.0,30.00,NE,49,8.0,32.0,86,0.00,,,0.00,,2013-03-24 15:53:00,
2013-03-24 11:02:00,33.0,29.0,30.00,NE,36,6.0,32.0,86,0.00,,,0.00,,2013-03-24 16:02:00,
2013-03-24 11:12:00,33.0,29.0,30.00,NE,36,6.0,32.0,86,0.00,,,0.00,,2013-03-24 16:12:00,
2013-03-24 11:22:00,32.0,28.0,30.00,NE,40,5.0,32.0,86,0.00,,,0.00,,2013-03-24 16:22:00,
2013-03-24 11:33:00,33.0,29.0,30.00,NE,36,3.0,32.0,86,0.00,,,0.00,,2013-03-24 16:33:00,
2013-03-24 11:42:00,33.0,29.0,30.00,NE,36,3.0,32.0,86,0.00,,,0.00,,2013-03-24 16:42:00,
2013-03-24 11:52:00,33.0,29.0,30.00,NE,44,5.0,32.0,86,0.00,,,0.00,,2013-03-24 16:52:00,
2013-03-24 12:02:00,33.0,29.0,30.00,NE,41,7.0,32.0,86,0.00,,,0.00,,2013-03-24 17:02:00,
2013-03-24 12:12:00,33.0,29.0,30.00,NE,41,7.0,32.0,86,0.00,,,0.00,,2013-03-24 17:12:00,
2013-03-24 12:22:00,32.0,28.0,30.00,NNE,32,6.0,32.0,86,0.01,,,0.01,,2013-03-24 17:22:00,
2013-03-24 12:32:00,32.0,28.0,30.00,NE,37,7.0,32.0,86,0.01,,,0.01,,2013-03-24 17:32:00,
2013-03-24 12:42:00,32.0,28.0,30.00,NE,37,7.0,32.0,86,0.01,,,0.01,,2013-03-24 17:42:00,
2013-03-24 12:53:00,32.0,28.0,30.00,NE,37,6.0,32.0,86,0.01,,,0.01,,2013-03-24 17:53:00,
2013-03-24 13:02:00,33.0,29.0,30.00,NE,40,7.0,32.0,86,0.01,,,0.01,,2013-03-24 18:02:00,
2013-03-24 13:12:00,33.0,29.0,30.00,NE,40,7.0,32.0,86,0.01,,,0.01,,2013-03-24 18:12:00,
2013-03-24 13:22:00,33.0,29.0,30.00,NNE,32,7.0,32.0,86,0.00,,,0.01,,2013-03-24 18:22:00,
2013-03-24 13:32:00,33.0,29.0,30.00,NNE,25,8.0,32.0,86,0.01,,,0.02,,2013-03-24 18:32:00,
2013-03-24 13:43:00,33.0,29.0,30.00,NNE,25,8.0,32.0,86,0.01,,,0.02,,2013-03-24 18:43:00,
2013-03-24 13:52:00,32.0,28.0,30.00,NNE,30,8.0,32.0,86,0.01,,,0.02,,2013-03-24 18:52:00,
2013-03-24 14:02:00,32.0,28.0,30.00,NNE,33,7.0,32.0,86,0.01,,,0.02,,2013-03-24 19:02:00,
2013-03-24 14:12:00,32.0,28.0,30.00,NNE,33,7.0,32.0,86,0.01,,,0.02,,2013-03-24 19:12:00,
2013-03-24 14:22:00,32.0,28.0,30.00,NNE,23,8.0,32.0,86,0.01,,,0.02,,2013-03-24 19:22:00,
2013-03-24 14:32:00,32.0,28.0,30.00,NNE,33,7.0,32.0,86,0.00,,,0.02,,2013-03-24 19:32:00,
2013-03-24 14:42:00,32.0,28.0,30.00,NNE,33,7.0,32.0,86,0.00,,,0.02,,2013-03-24 19:42:00,
2013-03-24 14:53:00,32.0,28.0,30.00,NNE,29,9.0,32.0,86,0.00,,,0.02,,2013-03-24 19:53:00,
2013-03-24 15:02:00,32.0,28.0,30.00,NNE,29,7.0,32.0,86,0.00,,,0.02,,2013-03-24 20:02:00,
2013-03-24 15:12:00,32.0,28.0,30.00,NNE,29,7.0,32.0,86,0.00,,,0.02,,2013-03-24 20:12:00,
2013-03-24 15:22:00,32.0,28.0,30.00,NNE,23,7.0,32.0,86,0.00,,,0.02,,2013-03-24 20:22:00,
2013-03-24 15:32:00,32.0,28.0,30.00,NNE,31,8.0,32.0,86,0.00,,,0.02,,2013-03-24 20:32:00,
2013-03-24 15:42:00,32.0,28.0,30.00,NNE,31,8.0,32.0,86,0.00,,,0.02,,2013-03-24 20:42:00,
2013-03-24 15:53:00,32.0,28.0,30.00,NNE,29,8.0,32.0,86,0.01,,,0.03,,2013-03-24 20:53:00,
2013-03-24 16:02:00,32.0,28.0,30.00,North,10,7.0,32.0,86,0.01,,,0.03,,2013-03-24 21:02:00,
2013-03-24 16:12:00,32.0,28.0,30.00,North,10,7.0,32.0,86,0.01,,,0.03,,2013-03-24 21:12:00,
2013-03-24 16:22:00,32.0,28.0,30.00,NNE,22,8.0,32.0,86,0.01,,,0.03,,2013-03-24 21:22:00,
2013-03-24 16:33:00,31.0,27.0,30.00,NNE,21,8.0,32.0,86,0.01,,,0.03,,2013-03-24 21:33:00,
2013-03-24 16:43:00,31.0,27.0,30.00,NNE,21,8.0,32.0,86,0.01,,,0.03,,2013-03-24 21:43:00,
2013-03-24 16:53:00,31.0,27.0,30.00,NNE,25,9.0,32.0,86,0.00,,,0.03,,2013-03-24 21:53:00,
2013-03-24 17:02:00,31.0,27.0,30.00,NE,34,7.0,32.0,86,0.00,,,0.03,,2013-03-24 22:02:00,
2013-03-24 17:13:00,30.0,26.0,30.00,NNE,19,12.0,32.0,86,0.00,,,0.03,,2013-03-24 22:13:00,
2013-03-24 17:23:00,30.0,26.0,30.00,NNE,19,12.0,32.0,86,0.00,,,0.03,,2013-03-24 22:23:00,
2013-03-24 17:33:00,30.0,26.0,30.00,NNE,15,8.0,32.0,86,0.00,,,0.03,,2013-03-24 22:33:00,
2013-03-24 17:42:00,30.0,26.0,30.00,NNE,15,8.0,32.0,86,0.00,,,0.03,,2013-03-24 22:42:00,
2013-03-24 17:52:00,30.0,26.0,30.00,NNE,24,8.0,32.0,86,0.00,,,0.03,,2013-03-24 22:52:00,
2013-03-24 18:02:00,30.0,26.0,30.00,NNE,12,7.0,32.0,86,0.00,,,0.03,,2013-03-24 23:02:00,
2013-03-24 18:12:00,30.0,26.0,30.00,NNE,12,7.0,32.0,86,0.00,,,0.03,,2013-03-24 23:12:00,
2013-03-24 18:22:00,30.0,26.0,30.00,NNE,18,7.0,32.0,86,0.00,,,0.03,,2013-03-24 23:22:00,
2013-03-24 18:32:00,30.0,26.0,30.00,North,3,8.0,32.0,86,0.00,,,0.03,,2013-03-24 23:32:00,
2013-03-24 18:42:00,30.0,26.0,30.00,North,3,8.0,32.0,86,0.00,,,0.03,,2013-03-24 23:42:00,
2013-03-24 18:53:00,30.0,26.0,30.00,NNE,19,8.0,32.0,86,0.00,,,0.03,,2013-03-24 23:53:00,
2013-03-24 19:02:00,30.0,26.0,30.00,NNE,18,6.0,32.0,86,0.00,,,0.03,,2013-03-25 00:02:00,
2013-03-24 19:12:00,30.0,26.0,30.00,NNE,18,6.0,32.0,86,0.00,,,0.03,,2013-03-25 00:12:00,
2013-03-24 19:22:00,30.0,26.0,30.00,North,3,2.0,32.0,86,0.00,,,0.03,,2013-03-25 00:22:00,
2013-03-24 19:32:00,30.0,26.0,30.00,North,6,7.0,32.0,86,0.00,,,0.03,,2013-03-25 00:32:00,
2013-03-24 19:42:00,30.0,26.0,30.00,North,6,7.0,32.0,86,0.00,,,0.03,,2013-03-25 00:42:00,
2013-03-24 19:53:00,30.0,26.0,30.00,North,358,9.0,32.0,86,0.00,,,0.03,,2013-03-25 00:53:00,
2013-03-24 20:02:00,30.0,26.0,30.00,North,1,6.0,32.0,86,0.00,,,0.03,,2013-03-25 01:02:00,
2013-03-24 20:12:00,30.0,26.0,30.00,North,1,6.0,32.0,86,0.00,,,0.03,,2013-03-25 01:12:00,
2013-03-24 20:22:00,30.0,26.0,30.00,North,0,1.0,32.0,86,0.00,,,0.03,,2013-03-25 01:22:00,
2013-03-24 20:32:00,30.0,26.0,30.00,North,0,0.0,32.0,86,0.00,,,0.03,,2013-03-25 01:32:00,
2013-03-24 20:42:00,30.0,26.0,30.00,North,0,0.0,32.0,86,0.00,,,0.03,,2013-03-25 01:42:00,
2013-03-24 20:52:00,30.0,26.0,30.00,North,0,0.0,32.0,86,0.00,,,0.03,,2013-03-25 01:52:00,
2013-03-24 21:02:00,30.0,26.0,30.00,North,0,5.0,32.0,86,0.00,,,0.03,,2013-03-25 02:02:00,
2013-03-24 21:12:00,30.0,26.0,30.00,North,0,5.0,32.0,86,0.00,,,0.03,,2013-03-25 02:12:00,
2013-03-24 21:22:00,30.0,26.0,30.00,North,2,5.0,32.0,86,0.00,,,0.03,,2013-03-25 02:22:00,
2013-03-24 21:32:00,30.0,26.0,30.00,North,7,1.0,32.0,86,0.00,,,0.03,,2013-03-25 02:32:00,
2013-03-24 21:42:00,30.0,26.0,30.00,North,7,1.0,32.0,86,0.00,,,0.03,,2013-03-25 02:42:00,
2013-03-24 21:52:00,30.0,26.0,30.00,North,0,1.0,32.0,86,0.00,,,0.03,,2013-03-25 02:52:00,
2013-03-24 22:02:00,30.0,26.0,30.00,North,0,2.0,32.0,86,0.00,,,0.03,,2013-03-25 03:02:00,
2013-03-24 22:12:00,30.0,26.0,30.00,North,0,2.0,32.0,86,0.00,,,0.03,,2013-03-25 03:12:00,
2013-03-24 22:22:00,30.0,26.0,30.00,North,0,0.0,32.0,86,0.00,,,0.03,,2013-03-25 03:22:00,
2013-03-24 22:33:00,30.0,26.0,30.00,North,0,0.0,32.0,86,0.00,,,0.03,,2013-03-25 03:33:00,
2013-03-24 22:42:00,30.0,26.0,30.00,North,0,0.0,32.0,86,0.00,,,0.03,,2013-03-25 03:42:00,
2013-03-24 22:53:00,30.0,26.0,30.00,North,0,0.0,32.0,86,0.00,,,0.03,,2013-03-25 03:53:00,
2013-03-24 23:02:00,29.0,25.0,30.00,North,354,6.0,32.0,86,0.00,,,0.03,,2013-03-25 04:02:00,
2013-03-24 23:12:00,29.0,25.0,30.00,North,354,6.0,32.0,86,0.00,,,0.03,,2013-03-25 04:12:00,
2013-03-24 23:22:00,29.0,25.0,30.00,North,4,5.0,32.0,86,0.00,,,0.03,,2013-03-25 04:22:00,
2013-03-24 23:32:00,29.0,25.0,30.00,North,0,1.0,32.0,86,0.00,,,0.03,,2013-03-25 04:32:00,
2013-03-24 23:42:00,29.0,25.0,30.00,North,0,1.0,32.0,86,0.00,,,0.03,,2013-03-25 04:42:00,
2013-03-24 23:52:00,29.0,25.0,30.00,North,1,3.0,32.0,86,0.00,,,0.03,,2013-03-25 04:52:00,